EW4792 Weather Reports


Display with metric or nautical units.
time (UTC)temp
F
wind
direction
speed
MPH
gust
MPH
rain 1hr
in
rain 24hr
in
rain mn
in
humidity
%
barometer
mb
20190221124156 51 74 6.0 8.0 0.00 0.01 0.00 73 1012.7
20190221123729 51 74 6.0 8.0 0.00 0.01 0.00 73 1012.8
20190221122639 51 96 4.0 6.0 0.00 0.01 0.00 73 1012.8
20190221122225 51 90 5.0 6.0 0.00 0.01 0.00 73 1012.7
20190221121158 51 83 2.0 5.0 0.00 0.01 0.00 73 1012.7
20190221120733 51 84 3.0 6.0 0.00 0.01 0.00 73 1012.7
20190221120218 51 85 3.0 6.0 0.00 0.01 0.00 73 1012.5
20190221115650 51 115 2.0 5.0 0.00 0.01 0.00 73 1012.7
20190221115217 51 115 4.0 5.0 0.00 0.01 0.00 73 1012.7
20190221114700 51 115 2.0 3.0 0.00 0.01 0.00 73 1012.7
20190221114156 51 115 3.0 4.0 0.00 0.01 0.00 74 1012.6
20190221113723 51 115 2.0 4.0 0.00 0.01 0.00 74 1012.6
20190221113157 51 115 1.0 2.0 0.00 0.01 0.00 76 1012.5
20190221112728 51 115 0.0 2.0 0.00 0.01 0.00 77 1012.4
20190221112142 50 115 1.0 2.0 0.00 0.01 0.00 77 1012.4
20190221111732 50 115 1.0 2.0 0.00 0.01 0.00 78 1012.5
20190221111150 50 115 0.0 2.0 0.00 0.01 0.00 78 1012.6
20190221110735 50 115 1.0 2.0 0.00 0.01 0.00 78 1012.5
20190221110205 50 115 1.0 2.0 0.00 0.01 0.00 78 1012.6
20190221105733 50 115 1.0 2.0 0.00 0.01 0.00 78 1012.6
20190221105214 50 115 0.0 2.0 0.00 0.01 0.00 78 1012.7
20190221104653 50 115 1.0 2.0 0.00 0.01 0.00 78 1012.7
20190221104147 50 115 1.0 4.0 0.00 0.01 0.00 79 1012.7
20190221103729 50 115 2.0 4.0 0.00 0.01 0.00 78 1012.7
20190221103203 50 115 1.0 2.0 0.00 0.01 0.00 79 1012.9
20190221102642 50 115 1.0 4.0 0.00 0.01 0.00 78 1013.0
20190221102217 50 115 2.0 4.0 0.00 0.01 0.00 78 1013.0
20190221101700 50 115 2.0 3.0 0.00 0.01 0.00 78 1013.0
20190221101226 50 115 1.0 2.0 0.00 0.01 0.00 78 1012.9
20190221100652 50 115 0.0 4.0 0.00 0.01 0.00 78 1012.9
20190221100203 50 115 1.0 4.0 0.00 0.01 0.00 78 1013.1
20190221095637 50 115 1.0 2.0 0.00 0.01 0.00 78 1013.2
20190221095210 50 115 0.0 2.0 0.00 0.01 0.00 77 1013.3
20190221094706 50 115 1.0 2.0 0.00 0.01 0.00 76 1013.5
20190221094231 50 115 1.0 2.0 0.00 0.01 0.00 75 1013.4
20190221093728 50 115 2.0 2.0 0.00 0.01 0.00 74 1013.5
20190221093147 50 115 1.0 4.0 0.00 0.01 0.00 74 1013.7
20190221092733 50 115 2.0 3.0 0.00 0.01 0.00 74 1013.7
20190221092208 50 115 2.0 4.0 0.00 0.01 0.00 73 1013.8
20190221091647 50 115 1.0 4.0 0.00 0.01 0.00 73 1013.6
20190221091232 50 115 1.0 5.0 0.00 0.01 0.00 75 1013.6
20190221090707 50 115 3.0 5.0 0.00 0.01 0.00 75 1013.8
20190221085720 50 115 2.0 3.0 0.00 0.01 0.00 75 1013.9
20190221085156 50 115 2.0 2.0 0.00 0.01 0.00 75 1013.9
20190221084641 50 115 0.0 4.0 0.00 0.01 0.00 74 1014.0
20190221084235 50 115 1.0 3.0 0.00 0.01 0.00 75 1013.9
20190221083715 50 115 1.0 2.0 0.00 0.01 0.00 74 1013.9
20190221082710 50 115 1.0 4.0 0.00 0.01 0.00 74 1014.1
20190221082151 50 115 1.0 4.0 0.00 0.01 0.00 74 1014.3
20190221081642 49 115 0.0 1.0 0.00 0.01 0.00 72 1014.3
20190221081231 49 115 0.0 2.0 0.00 0.01 0.00 71 1014.0
20190221080715 49 115 1.0 2.0 0.00 0.01 0.00 71 1014.0
20190221080155 49 115 0.0 0.0 0.00 0.01 0.00 70 1014.1
20190221075643 49 115 0.0 0.0 0.00 0.01 0.00 73 1014.1
20190221075151 49 115 0.0 0.0 0.00 0.01 0.00 72 1014.1
20190221074635 49 115 0.0 0.0 0.00 0.01 0.00 71 1014.3
20190221074145 49 115 0.0 2.0 0.00 0.01 0.00 71 1014.4
20190221073651 49 115 0.0 4.0 0.00 0.01 0.00 71 1014.2
20190221073155 49 115 1.0 4.0 0.00 0.01 0.00 73 1014.2
20190221072637 48 115 1.0 2.0 0.00 0.01 0.00 75 1014.1
20190221072143 48 115 1.0 2.0 0.00 0.01 0.00 74 1014.1
20190221071647 48 115 0.0 2.0 0.00 0.01 0.00 73 1014.3
20190221071155 48 115 0.0 4.0 0.00 0.01 0.00 73 1014.5
20190221070639 48 115 1.0 4.0 0.00 0.01 0.00 73 1014.4
20190221070143 48 115 2.0 3.0 0.00 0.01 0.00 74 1014.4
20190221065644 48 115 1.0 4.0 0.00 0.01 0.00 73 1014.7
20190221065146 48 115 1.0 5.0 0.00 0.01 0.00 73 1014.7
20190221064654 48 115 3.0 6.0 0.00 0.01 0.00 73 1014.7
20190221064140 48 115 5.0 6.0 0.00 0.01 0.00 73 1014.5
20190221063642 48 115 2.0 3.0 0.00 0.01 0.00 72 1014.6
20190221063152 48 115 2.0 6.0 0.00 0.01 0.00 72 1014.5
20190221062637 49 115 4.0 7.0 0.00 0.01 0.00 72 1014.6
20190221062142 49 115 6.0 7.0 0.00 0.01 0.00 72 1014.5
20190221061646 49 115 6.0 7.0 0.00 0.01 0.00 71 1014.5
20190221061150 49 115 6.0 7.0 0.00 0.01 0.00 72 1014.4
20190221060656 49 115 6.0 8.0 0.00 0.01 0.00 71 1014.4
20190221060159 49 114 6.0 8.0 0.00 0.01 0.00 71 1014.4
20190221055731 49 114 7.0 8.0 0.00 0.01 0.01 71 1014.4
20190221055158 49 103 5.0 7.0 0.00 0.01 0.01 71 1014.5
20190221054726 49 92 5.0 7.0 0.00 0.01 0.01 71 1014.5
20190221054153 49 84 6.0 7.0 0.00 0.01 0.01 71 1014.6
20190221053733 49 83 6.0 8.0 0.00 0.01 0.01 70 1014.5
20190221053159 49 92 6.0 8.0 0.00 0.01 0.01 71 1014.5
20190221052642 50 90 5.0 8.0 0.00 0.01 0.01 70 1014.4
20190221052147 50 88 6.0 8.0 0.00 0.01 0.01 70 1014.5
20190221051735 50 96 5.0 7.0 0.00 0.01 0.01 70 1014.4
20190221051208 50 98 5.0 7.0 0.00 0.01 0.01 72 1014.5
20190221050700 50 98 5.0 6.0 0.00 0.01 0.01 71 1014.5
20190221050156 49 98 5.0 6.0 0.00 0.01 0.01 76 1014.4
20190221045730 49 95 5.0 6.0 0.00 0.02 0.01 76 1014.3
20190221045153 49 96 4.0 5.0 0.00 0.02 0.01 75 1014.3
20190221044731 48 95 4.0 5.0 0.00 0.02 0.01 74 1014.3
20190221044206 49 96 4.0 5.0 0.00 0.02 0.01 73 1014.4
20190221043637 49 96 3.0 5.0 0.00 0.02 0.01 74 1014.4
20190221043159 49 96 4.0 5.0 0.00 0.02 0.01 73 1014.4
20190221042230 50 95 4.0 6.0 0.00 0.02 0.01 70 1014.3
20190221041706 50 96 5.0 6.0 0.00 0.02 0.01 69 1014.3
20190221041201 50 96 5.0 7.0 0.00 0.02 0.01 68 1014.3
20190221040649 50 96 5.0 8.0 0.00 0.02 0.01 66 1014.2
20190221040140 50 99 5.0 8.0 0.00 0.02 0.01 67 1014.1
20190221035715 50 107 7.0 9.0 0.00 0.02 0.01 66 1014.0
20190221035154 51 105 7.0 9.0 0.00 0.02 0.01 66 1013.9
20190221034734 51 101 6.0 8.0 0.00 0.02 0.01 65 1013.7
20190221033214 51 98 6.0 8.0 0.00 0.02 0.01 67 1013.4
20190221032648 51 111 4.0 6.0 0.00 0.02 0.01 62 1013.4
20190221032224 51 111 4.0 5.0 0.00 0.02 0.01 66 1013.5
20190221031657 51 113 0.0 2.0 0.00 0.02 0.01 64 1013.6
20190221031217 51 113 1.0 4.0 0.00 0.02 0.01 62 1013.7
20190221030644 51 113 2.0 4.0 0.00 0.02 0.01 67 1013.5
20190221030224 52 113 0.0 4.0 0.00 0.02 0.01 66 1013.3
20190221025705 52 113 1.0 4.0 0.00 0.03 0.01 68 1013.5
20190221025142 52 113 1.0 2.0 0.00 0.03 0.01 66 1013.5
20190221024708 52 113 1.0 6.0 0.00 0.03 0.01 65 1013.5
20190221024233 52 113 3.0 6.0 0.00 0.03 0.01 61 1013.4
20190221023647 53 113 5.0 5.0 0.00 0.03 0.01 63 1013.3
20190221023221 54 113 3.0 5.0 0.00 0.03 0.01 61 1013.3
20190221022707 54 113 4.0 6.0 0.00 0.03 0.01 57 1013.3
20190221022147 55 113 3.0 6.0 0.00 0.03 0.01 58 1013.4
20190221021732 55 113 5.0 7.0 0.00 0.03 0.01 58 1013.3
20190221021224 56 119 2.0 12.0 0.00 0.03 0.01 53 1013.1
20190221020640 56 117 3.0 18.0 0.00 0.03 0.01 49 1012.9
20190221020222 57 119 9.0 18.0 0.00 0.03 0.01 52 1012.9
20190221015722 58 360 8.0 10.0 0.00 0.03 0.01 45 1012.7
20190221015201 58 23 8.0 11.0 0.00 0.03 0.01 45 1012.8
20190221014640 57 24 8.0 11.0 0.00 0.03 0.01 45 1012.7
20190221014210 57 33 7.0 10.0 0.00 0.03 0.01 47 1012.8
20190221013733 57 36 7.0 10.0 0.00 0.03 0.01 47 1012.9
20190221013216 57 52 6.0 10.0 0.00 0.03 0.01 50 1012.9
20190221012638 56 51 6.0 7.0 0.00 0.03 0.01 49 1013.0
20190221012211 56 59 6.0 8.0 0.00 0.03 0.01 52 1012.6
20190221011153 56 63 6.0 8.0 0.00 0.03 0.01 50 1012.4
20190221010720 56 70 6.0 8.0 0.00 0.03 0.01 51 1012.5
20190221010151 56 72 5.0 6.0 0.00 0.03 0.01 53 1012.5
20190221005732 57 72 5.0 7.0 0.00 0.03 0.01 52 1012.5
20190221005208 57 72 6.0 7.0 0.00 0.03 0.01 52 1012.5
20190221004642 57 72 6.0 7.0 0.00 0.03 0.01 53 1012.5
20190221004229 57 72 5.0 8.0 0.00 0.03 0.01 51 1012.6
20190221003703 57 74 6.0 8.0 0.00 0.03 0.01 53 1012.5
20190221002700 59 74 6.0 7.0 0.00 0.03 0.01 51 1012.3
20190221002143 59 75 6.0 6.0 0.00 0.03 0.01 47 1012.5
20190221001722 60 84 5.0 7.0 0.00 0.03 0.01 47 1012.5
20190221001208 60 84 5.0 8.0 0.00 0.03 0.01 45 1012.6
20190221000651 61 84 7.0 8.0 0.00 0.03 0.01 42 1012.6
20190221000227 62 71 4.0 6.0 0.00 0.03 0.01 41 1012.5
20190220235649 62 69 4.0 6.0 0.00 0.03 0.01 36 1012.4
20190220235234 62 71 5.0 6.0 0.00 0.03 0.01 36 1012.3
20190220234723 63 91 3.0 7.0 0.00 0.03 0.01 46 1012.5
20190220234209 64 84 5.0 9.0 0.00 0.03 0.01 40 1012.3
20190220233650 64 90 5.0 7.0 0.00 0.03 0.01 33 1012.2
20190220233215 64 90 6.0 7.0 0.00 0.03 0.01 32 1012.2
20190220232150 64 67 5.0 6.0 0.00 0.03 0.01 30 1012.2
20190220231646 63 74 4.0 5.0 0.00 0.03 0.01 32 1012.1
20190220231214 63 133 3.0 5.0 0.00 0.03 0.01 31 1012.0
20190220230651 63 165 2.0 3.0 0.00 0.03 0.01 29 1012.1
20190220230138 63 165 1.0 5.0 0.00 0.03 0.01 31 1012.0
20190220225711 63 164 2.0 5.0 0.00 0.03 0.01 31 1012.1
20190220225205 62 164 1.0 4.0 0.00 0.03 0.01 33 1012.2
20190220224655 62 165 3.0 6.0 0.00 0.03 0.01 38 1012.2
20190220224220 62 165 4.0 7.0 0.00 0.03 0.01 39 1012.3
20190220223649 63 165 5.0 7.0 0.00 0.03 0.01 39 1012.2
20190220223219 62 165 2.0 5.0 0.00 0.03 0.01 32 1012.3
20190220222645 62 165 3.0 5.0 0.00 0.03 0.01 40 1012.3
20190220222220 62 164 3.0 5.0 0.00 0.03 0.01 37 1012.4
20190220221657 62 164 4.0 5.0 0.00 0.03 0.01 53 1012.5
20190220221139 62 164 4.0 6.0 0.00 0.03 0.01 42 1012.5
20190220215650 62 165 6.0 6.0 0.00 0.04 0.01 51 1012.6
20190220215222 63 166 5.0 7.0 0.00 0.04 0.01 45 1012.7
20190220214708 63 164 5.0 7.0 0.00 0.04 0.01 30 1012.8
20190220214152 63 187 5.0 7.0 0.00 0.04 0.01 30 1012.7
20190220213732 63 182 3.0 6.0 0.00 0.04 0.01 34 1012.7
20190220213152 63 203 4.0 6.0 0.00 0.04 0.01 32 1012.7
20190220212732 63 200 2.0 6.0 0.00 0.04 0.01 32 1012.7
20190220211157 63 244 1.0 8.0 0.00 0.04 0.01 30 1012.7
20190220210643 62 244 4.0 10.0 0.00 0.04 0.01 33 1012.7
20190220210216 62 236 5.0 10.0 0.00 0.04 0.01 32 1012.7
20190220205702 62 248 5.0 10.0 0.00 0.05 0.01 38 1012.7
20190220205220 62 272 8.0 10.0 0.00 0.05 0.01 32 1012.7
20190220204656 62 259 2.0 7.0 0.00 0.05 0.01 34 1012.8
20190220204224 62 264 3.0 7.0 0.00 0.05 0.01 43 1013.0
20190220203657 61 223 5.0 6.0 0.00 0.05 0.01 39 1013.0
20190220203235 61 227 4.0 6.0 0.00 0.05 0.01 35 1013.1
20190220202716 62 231 5.0 6.0 0.00 0.05 0.01 36 1013.2
20190220202155 61 236 5.0 7.0 0.00 0.05 0.01 34 1013.3
20190220201722 61 213 3.0 7.0 0.00 0.05 0.01 40 1013.3
20190220200201 60 232 4.0 10.0 0.00 0.05 0.01 42 1013.5
20190220195654 61 230 8.0 10.0 0.00 0.05 0.01 46 1013.5
20190220195221 61 17 5.0 8.0 0.00 0.05 0.01 35 1013.6
20190220194655 61 355 3.0 10.0 0.01 0.05 0.01 36 1013.7
20190220194232 60 18 4.0 10.0 0.01 0.05 0.01 38 1013.8
20190220193710 60 344 5.0 9.0 0.01 0.05 0.01 38 1013.9
20190220193155 60 323 5.0 8.0 0.01 0.05 0.01 41 1013.9
20190220192643 60 9 6.0 8.0 0.01 0.05 0.01 42 1014.1
20190220192223 60 290 1.0 8.0 0.01 0.05 0.01 43 1014.3
20190220191645 59 321 6.0 10.0 0.01 0.05 0.01 42 1014.4
20190220191225 59 355 4.0 10.0 0.01 0.05 0.01 43 1014.5
20190220190707 59 324 5.0 10.0 0.01 0.05 0.01 45 1014.6
20190220190143 58 20 6.0 9.0 0.01 0.05 0.01 45 1014.7
20190220185720 57 317 4.0 9.0 0.01 0.08 0.01 50 1014.8
20190220185203 56 104 4.0 9.0 0.01 0.08 0.01 56 1014.8
20190220184649 55 165 5.0 7.0 0.00 0.07 0.00 58 1015.0
20190220184231 55 174 5.0 8.0 0.00 0.07 0.00 63 1015.1
20190220183644 54 176 7.0 8.0 0.00 0.07 0.00 66 1015.2
20190220183208 54 178 7.0 9.0 0.00 0.07 0.00 66 1015.3
20190220182653 54 155 6.0 9.0 0.00 0.07 0.00 63 1015.4
20190220182232 54 159 7.0 8.0 0.00 0.07 0.00 65 1015.5
20190220181703 54 171 5.0 8.0 0.00 0.07 0.00 63 1015.6
20190220181202 53 188 7.0 8.0 0.00 0.07 0.00 64 1015.6
20190220180733 53 195 6.0 7.0 0.00 0.07 0.00 64 1015.8
20190220180201 54 205 5.0 7.0 0.00 0.07 0.00 64 1016.0
20190220175637 53 248 4.0 7.0 0.00 0.10 0.00 63 1016.0
20190220175225 53 230 4.0 9.0 0.00 0.10 0.00 64 1016.1
20190220174716 52 275 4.0 9.0 0.00 0.10 0.00 65 1016.2
20190220174158 52 242 7.0 8.0 0.00 0.10 0.00 70 1016.0
20190220173643 51 224 6.0 8.0 0.00 0.10 0.00 72 1016.1
20190220173211 51 218 6.0 8.0 0.00 0.10 0.00 71 1016.3
20190220172728 51 226 6.0 8.0 0.00 0.10 0.00 74 1016.2
20190220172214 50 237 6.0 8.0 0.00 0.10 0.00 74 1016.1
20190220171644 50 230 6.0 7.0 0.00 0.10 0.00 75 1016.2
20190220171136 50 230 6.0 7.0 0.00 0.10 0.00 76 1016.2
20190220170648 49 234 6.0 7.0 0.00 0.10 0.00 77 1016.2
20190220170214 49 225 6.0 7.0 0.00 0.10 0.00 78 1016.2
20190220165654 48 225 6.0 8.0 0.00 0.13 0.00 80 1016.3
20190220165231 48 226 6.0 9.0 0.00 0.13 0.00 81 1016.2
20190220163658 46 225 7.0 9.0 0.00 0.13 0.00 83 1016.3
20190220163221 46 230 8.0 10.0 0.00 0.13 0.00 84 1016.3
20190220162704 46 232 9.0 10.0 0.00 0.13 0.00 85 1016.3
20190220162143 46 243 7.0 10.0 0.00 0.13 0.00 85 1016.4
20190220161641 46 243 7.0 9.0 0.00 0.13 0.00 84 1016.5
20190220161216 46 261 6.0 8.0 0.00 0.13 0.00 84 1016.7
20190220160643 46 236 6.0 8.0 0.00 0.13 0.00 83 1016.7
20190220160217 46 288 6.0 7.0 0.00 0.13 0.00 83 1016.8
20190220155656 45 289 5.0 7.0 0.00 0.13 0.00 84 1016.7
20190220155221 45 284 3.0 7.0 0.00 0.13 0.00 85 1016.7
20190220154702 44 336 1.0 7.0 0.00 0.13 0.00 84 1016.6
20190220154203 44 342 5.0 8.0 0.00 0.13 0.00 85 1016.5
20190220153656 43 349 5.0 8.0 0.00 0.13 0.00 86 1016.5
20190220153146 43 339 3.0 7.0 0.00 0.13 0.00 87 1016.5
20190220152731 43 327 3.0 8.0 0.00 0.13 0.00 87 1016.4
20190220152210 42 341 5.0 8.0 0.00 0.13 0.00 88 1016.5
20190220151643 42 322 6.0 7.0 0.00 0.13 0.00 88 1016.5
20190220151235 42 306 5.0 7.0 0.00 0.13 0.00 89 1016.5
20190220150714 42 326 3.0 8.0 0.00 0.13 0.00 89 1016.5
20190220150155 41 341 5.0 8.0 0.00 0.13 0.00 90 1016.4
20190220145724 41 13 4.0 8.0 0.00 0.13 0.00 90 1016.4
20190220144710 41 329 5.0 8.0 0.00 0.13 0.00 91 1016.3
20190220144154 41 337 5.0 7.0 0.00 0.13 0.00 92 1016.3
20190220143714 40 355 5.0 7.0 0.00 0.13 0.00 92 1016.3
20190220143153 40 327 3.0 6.0 0.00 0.13 0.00 92 1016.1
20190220142729 40 9 5.0 7.0 0.00 0.13 0.00 92 1016.0
20190220142210 40 340 4.0 6.0 0.00 0.13 0.00 92 1016.1
20190220141644 40 325 3.0 5.0 0.00 0.13 0.00 92 1015.9
20190220141207 40 312 2.0 5.0 0.00 0.13 0.00 92 1015.9
20190220140647 39 312 2.0 5.0 0.00 0.13 0.00 92 1015.8
20190220140224 39 5 2.0 4.0 0.00 0.13 0.00 92 1015.9
20190220135714 39 5 2.0 5.0 0.00 0.13 0.00 92 1015.7
20190220135155 39 360 3.0 5.0 0.00 0.13 0.00 92 1015.6